Погода в Средней Турше

Россия / Республика Марий Эл     56°52′37″N   47°34′40″E
темп.,
°C
ветер,
м/с
пор.,
м/с
влажн.,
%
обл.,
%
осадки,
мм/ч
давл.,
гПа
погр.,
м
2 июля, сб
сб200:00+10ссв398716 0.0 1018149
03:00+9ссв38847 0.0 1019124
06:00+13ссв36719 0.0 1018188
09:00+18с34535 0.0 1018716
12:00+21с34475 0.0 10171855
15:00+22с454699 0.0 10151770
18:00+21сз13625 0.0 1014582
21:00+16всв2484100 0.1 101483
3 июля, вс
вс300:00+13ююз239589 1.1 101351
03:00+14ссв2498100 1.4 1014131
06:00+14ссв3698100 0.0 1014375
09:00+15ссв4687100 0.0 1014611
12:00+17ссв4576100 0.1 1014924
15:00+19ссв566883 0.1 10141041
18:00+18ссв4771100 0.0 1014927
21:00+13с2288100 0.0 101413
4 июля, пн
пн400:00+12сз22890 0.0 101426
03:00+14сз368053 0.0 1014129
06:00+15ссв3779100 0.0 1014248
09:00+20св35585 0.0 10151037
12:00+22ссв454654 0.0 10152017
15:00+22ссв4543100 0.0 10142101
18:00+21ссв2362100 0.0 1015113
21:00+15ссв117634 0.0 101511
5 июля, вт
вт500:00+13ссз2277100 0.0 101611
03:00+11с22807 0.0 101623
06:00+15ссв247151 0.0 1017138
09:00+21ссв22500 0.0 1017684
12:00+24ссз22405 0.0 10161702
15:00+24сз224112 0.0 10161765
18:00+23зюз016028 0.0 1016268
21:00+16ююв33725 0.0 101628
6 июля, ср
ср600:00+14ю33765 0.0 101738
03:00+13ю22810 0.0 101724
06:00+17ю24750 0.0 1017150
09:00+22ююз34570 0.0 1016592
12:00+26ююз34430 0.0 10161513
15:00+27юз444316 0.0 10151870
18:00+23ю3865100 0.0 1014258
21:00+19ю3987100 0.1 1015233